[[{"header":{"parameterUnit":"m.s-1","parameterCategory":2,"la1":30.2992,"la2":30.254,"lo1":-89.0895,"lo2":-89.0443,"dy":0.0025,"dx":0.0025,"nx":19,"ny":19,"refTime":"2026-05-19T09:00:00:Z","depth":"0","parameterNumber":2,"parameterNumberName":"U-component_of_CURRENTS"},"data":[0,0,0,-0.1233,-0.1234,-0.1267,-0.1267,-0.1274,-0.1274,0,0,0,0,0,0,0,0,0,0,0,-0.1224,-0.1224,-0.1233,-0.1234,-0.1267,-0.1267,-0.1274,-0.1274,0,0,0,0,0,0,0,0,0,0,0,-0.1224,-0.1224,-0.1225,-0.1234,-0.1267,-0.1267,-0.1274,-0.1258,0,0,0,0,0,0,0,0,0,0,-0.123,-0.1233,-0.1224,-0.1225,-0.1234,-0.1267,-0.1267,-0.1258,-0.1259,-0.1249,0,-0.1259,0,-0.1265,-0.1274,-0.1274,0,0,0,-0.1234,-0.1232,-0.1234,-0.1225,-0.1234,-0.1267,-0.1252,-0.1259,-0.126,-0.1251,-0.1259,-0.1259,-0.1265,-0.1274,-0.1274,-0.1287,-0.1287,0,0,-0.1232,-0.1234,-0.1234,-0.1236,-0.1248,-0.1251,-0.1253,-0.126,-0.1266,-0.1259,-0.126,-0.1265,-0.1274,-0.1274,-0.1287,-0.1287,0,0,0,-0.1227,-0.1233,-0.1237,-0.1235,-0.1243,-0.1252,-0.1254,-0.1266,-0.1266,-0.126,-0.1265,-0.1274,-0.1274,-0.1287,-0.1287,-0.1319,0,0,0,-0.1225,-0.123,-0.1236,-0.1238,-0.1243,-0.1261,-0.126,-0.1266,-0.1267,-0.1265,-0.1274,-0.1274,-0.1287,-0.1287,-0.1318,-0.1335,0,0,0,-0.1222,-0.123,-0.1234,-0.1238,-0.1252,-0.1261,-0.1262,-0.1266,-0.1269,-0.1274,-0.1274,-0.1286,-0.1287,-0.1317,-0.1333,-0.1348,0,0,0,-0.1222,-0.1251,-0.1234,-0.126,-0.1251,-0.1272,-0.1262,-0.1272,-0.1277,-0.1274,-0.1287,-0.1287,-0.1316,-0.1332,-0.1347,-0.1369,-0.1377,0,0,-0.1261,-0.1256,-0.1269,-0.1254,-0.1275,-0.1267,-0.1296,-0.1293,-0.128,-0.1281,-0.1282,-0.1318,-0.1333,-0.1348,-0.1393,-0.14,0,0,0,-0.1282,-0.1291,-0.1294,-0.1299,-0.1301,-0.1315,-0.131,-0.1309,-0.1313,-0.1286,-0.1318,-0.1326,-0.1335,-0.1345,-0.135,-0.1392,-0.1289,-0.1289,-0.1289,-0.1352,-0.1333,-0.135,-0.1335,-0.1343,-0.1345,-0.1357,-0.1354,-0.1333,-0.1338,-0.1351,-0.1385,-0.1396,-0.1401,-0.1444,-0.1349,-0.1349,-0.1349,-0.1349,-0.1399,-0.1402,-0.1381,-0.1387,-0.1383,-0.1398,-0.1403,-0.1395,-0.1406,-0.1381,-0.1388,-0.1378,-0.1409,-0.1453,-0.1351,-0.1351,-0.1351,-0.135,-0.135,-0.1433,-0.143,-0.1422,-0.1418,-0.1426,-0.1424,-0.1444,-0.1442,-0.1435,-0.1448,-0.1446,-0.1446,-0.1484,-0.1445,-0.1445,-0.1445,-0.1445,-0.1446,-0.1446,-0.1465,-0.1457,-0.1452,-0.1447,-0.144,-0.1447,-0.1462,-0.1475,-0.149,-0.1486,-0.1486,-0.1506,-0.1414,-0.141,-0.1448,-0.1448,-0.1447,-0.1447,-0.1447,-0.1485,-0.1477,-0.1472,-0.1463,-0.145,-0.1443,-0.1475,-0.1517,-0.1539,-0.1555,-0.1585,-0.1505,-0.1496,-0.1492,-0.149,-0.1546,-0.1546,-0.1546,-0.1546,-0.1492,-0.1492,-0.147,-0.1455,-0.145,-0.1438,-0.1463,-0.1514,-0.1596,-0.163,-0.1649,-0.164,-0.1635,-0.1633,-0.1625,-0.1625,-0.1714,-0.1714,-0.1715,-0.1488,-0.1484,-0.1465,-0.145,-0.1435,-0.1423,-0.142,-0.1519,-0.167,-0.1725,-0.1707,-0.17,-0.1688,-0.1675,-0.167,-0.1655,-0.1654,0,0]},{"header":{"parameterUnit":"m.s-1","parameterCategory":2,"la1":30.2992,"la2":30.254,"lo1":-89.0895,"lo2":-89.0443,"dy":0.0025,"dx":0.0025,"nx":19,"ny":19,"refTime":"2026-05-19T09:00:00:Z","depth":"0","parameterNumber":3,"parameterNumberName":"V-component_of_CURRENTS"},"data":[0,0,0,-0.06,-0.0598,-0.0486,-0.0485,-0.0346,-0.0345,0,0,0,0,0,0,0,0,0,0,0,-0.0637,-0.0636,-0.06,-0.0598,-0.0486,-0.0485,-0.0346,-0.0345,0,0,0,0,0,0,0,0,0,0,0,-0.0637,-0.0637,-0.0636,-0.0598,-0.0486,-0.0485,-0.0346,-0.0426,0,0,0,0,0,0,0,0,0,0,-0.0533,-0.0574,-0.0637,-0.0636,-0.0597,-0.0486,-0.0485,-0.043,-0.0421,-0.0403,0,-0.0391,0,-0.0372,-0.0337,-0.0336,0,0,0,-0.0583,-0.0581,-0.0552,-0.0636,-0.0596,-0.0486,-0.0532,-0.0425,-0.0415,-0.0391,-0.0389,-0.0384,-0.037,-0.0336,-0.0335,-0.0271,-0.0271,0,0,-0.0589,-0.0612,-0.0559,-0.0546,-0.0575,-0.0536,-0.0529,-0.0419,-0.0412,-0.0389,-0.0381,-0.0368,-0.0335,-0.0334,-0.0271,-0.0271,0,0,0,-0.0617,-0.0616,-0.0589,-0.0552,-0.0535,-0.0533,-0.0525,-0.0416,-0.0408,-0.0379,-0.0366,-0.0334,-0.0333,-0.0271,-0.0271,-0.0317,0,0,0,-0.062,-0.0634,-0.0592,-0.0604,-0.0538,-0.0475,-0.0525,-0.0415,-0.0402,-0.0367,-0.0334,-0.0332,-0.027,-0.0271,-0.0316,-0.0344,0,0,0,-0.0641,-0.0636,-0.0626,-0.0605,-0.0564,-0.0476,-0.046,-0.0411,-0.0395,-0.0336,-0.0332,-0.027,-0.0271,-0.0314,-0.0341,-0.0357,0,0,0,-0.0663,-0.0656,-0.0626,-0.0615,-0.0565,-0.0517,-0.046,-0.0414,-0.037,-0.0334,-0.027,-0.0271,-0.0314,-0.0339,-0.0356,-0.0485,-0.0503,0,0,-0.0669,-0.0657,-0.0652,-0.0623,-0.0596,-0.0531,-0.0495,-0.0415,-0.0369,-0.0304,-0.0301,-0.0316,-0.0341,-0.0357,-0.0508,-0.0526,0,0,0,-0.0664,-0.0662,-0.0648,-0.0625,-0.0581,-0.0537,-0.046,-0.0424,-0.0361,-0.0347,-0.0311,-0.0326,-0.0334,-0.0408,-0.0422,-0.0254,-0.0273,-0.0273,-0.0273,-0.0695,-0.0676,-0.0671,-0.064,-0.0609,-0.0536,-0.0496,-0.0433,-0.0384,-0.037,-0.036,-0.04,-0.048,-0.0492,-0.0316,-0.0351,-0.0351,-0.0351,-0.0351,-0.0721,-0.0723,-0.0697,-0.0688,-0.0641,-0.0606,-0.0521,-0.0482,-0.0431,-0.0393,-0.0399,-0.045,-0.0511,-0.0317,-0.0354,-0.0353,-0.0353,-0.0353,-0.0353,-0.075,-0.075,-0.0746,-0.0738,-0.0715,-0.0653,-0.0637,-0.0559,-0.0486,-0.0483,-0.0551,-0.0551,-0.0384,-0.0484,-0.0484,-0.0484,-0.0484,-0.0484,-0.0484,-0.0784,-0.0781,-0.08,-0.0789,-0.079,-0.0774,-0.0703,-0.0682,-0.0654,-0.0619,-0.062,-0.0387,-0.044,-0.0438,-0.0488,-0.0487,-0.0487,-0.0486,-0.0486,-0.0825,-0.0827,-0.086,-0.0873,-0.0887,-0.0941,-0.0869,-0.0886,-0.0839,-0.0858,-0.0571,-0.0685,-0.0682,-0.0672,-0.0675,-0.0783,-0.0783,-0.0783,-0.0783,-0.0858,-0.0859,-0.092,-0.0959,-0.0993,-0.1016,-0.1148,-0.1168,-0.0931,-0.0789,-0.0591,-0.0563,-0.0558,-0.0542,-0.0534,-0.0532,-0.06,-0.0599,-0.0598,-0.0893,-0.0907,-0.0964,-0.1002,-0.1045,-0.113,-0.1318,-0.1421,-0.0997,-0.0563,-0.0322,-0.033,-0.0254,-0.0261,-0.0208,-0.0212,-0.0198,0,0]}],[{"header":{"parameterUnit":"m.s-1","parameterCategory":2,"la1":30.2992,"la2":30.254,"lo1":-89.0895,"lo2":-89.0443,"dy":0.0025,"dx":0.0025,"nx":19,"ny":19,"refTime":"2026-05-19T09:00:00:Z","depth":"2","parameterNumber":2,"parameterNumberName":"U-component_of_CURRENTS"},"data":[0,0,0,-0.1172,-0.1173,-0.1218,-0.1219,-0.1205,-0.1205,0,0,0,0,0,0,0,0,0,0,0,-0.1145,-0.1145,-0.1172,-0.1173,-0.1218,-0.1219,-0.1205,-0.1205,0,0,0,0,0,0,0,0,0,0,0,-0.1145,-0.1145,-0.1146,-0.1173,-0.1218,-0.1219,-0.1205,-0.1189,0,0,0,0,0,0,0,0,0,0,-0.1154,-0.1124,-0.1145,-0.1146,-0.1174,-0.1218,-0.1219,-0.1189,-0.119,-0.1164,0,-0.1164,0,-0.1187,-0.1202,-0.1202,0,0,0,-0.1174,-0.1124,-0.1152,-0.1146,-0.1174,-0.1218,-0.1198,-0.119,-0.1191,-0.1165,-0.1165,-0.1165,-0.1187,-0.1202,-0.1202,-0.1144,-0.1143,0,0,-0.1171,-0.1138,-0.1152,-0.1153,-0.1175,-0.1197,-0.12,-0.1192,-0.1176,-0.1165,-0.1165,-0.1186,-0.1202,-0.1202,-0.1144,-0.1144,0,0,0,-0.1164,-0.1136,-0.1166,-0.1152,-0.1168,-0.1198,-0.1201,-0.1176,-0.1191,-0.1166,-0.1186,-0.1202,-0.1201,-0.1144,-0.1144,-0.1138,0,0,0,-0.1162,-0.1133,-0.1165,-0.1143,-0.1168,-0.1179,-0.1186,-0.1191,-0.1192,-0.1186,-0.1202,-0.1201,-0.1145,-0.1144,-0.1139,-0.1149,0,0,0,-0.1145,-0.113,-0.1137,-0.1142,-0.1165,-0.118,-0.1194,-0.1192,-0.1204,-0.1202,-0.1201,-0.1145,-0.1144,-0.114,-0.115,-0.1155,0,0,0,-0.111,-0.1105,-0.1135,-0.1127,-0.1165,-0.1177,-0.1195,-0.1197,-0.1194,-0.1201,-0.1145,-0.1144,-0.114,-0.115,-0.1155,-0.1216,-0.1219,0,0,-0.109,-0.1101,-0.1099,-0.1128,-0.1129,-0.1171,-0.1159,-0.1167,-0.1171,-0.1143,-0.1143,-0.1139,-0.115,-0.1155,-0.1168,-0.1173,0,0,0,-0.1084,-0.1081,-0.1084,-0.1091,-0.1111,-0.1128,-0.1142,-0.1145,-0.1138,-0.1166,-0.1124,-0.113,-0.1134,-0.1171,-0.1174,-0.114,-0.114,-0.114,-0.114,-0.1011,-0.1039,-0.1029,-0.1059,-0.1065,-0.1092,-0.1104,-0.1108,-0.1107,-0.1101,-0.1114,-0.1099,-0.1136,-0.114,-0.1094,-0.1094,-0.1094,-0.1094,-0.1094,-0.0981,-0.0982,-0.1002,-0.1013,-0.1035,-0.1035,-0.1059,-0.1074,-0.1085,-0.1084,-0.1088,-0.1148,-0.1144,-0.1093,-0.1093,-0.1093,-0.1093,-0.1093,-0.1093,-0.0944,-0.095,-0.0964,-0.0978,-0.0989,-0.1015,-0.104,-0.1069,-0.1079,-0.1094,-0.1141,-0.1142,-0.1114,-0.1096,-0.1096,-0.1096,-0.1096,-0.1097,-0.1097,-0.0905,-0.0919,-0.0922,-0.0944,-0.0952,-0.0981,-0.1037,-0.1058,-0.1114,-0.1147,-0.1147,-0.11,-0.11,-0.1114,-0.1097,-0.1097,-0.1097,-0.1097,-0.1097,-0.0866,-0.0879,-0.0879,-0.0887,-0.0911,-0.094,-0.1009,-0.1096,-0.113,-0.1159,-0.1178,-0.1176,-0.1189,-0.1187,-0.1203,-0.121,-0.121,-0.121,-0.121,-0.0832,-0.0841,-0.0836,-0.0837,-0.0855,-0.0911,-0.1048,-0.1244,-0.1308,-0.1375,-0.1368,-0.1384,-0.1376,-0.14,-0.1393,-0.1413,-0.1475,-0.1476,-0.1476,-0.0797,-0.0804,-0.0787,-0.0799,-0.0818,-0.0884,-0.1089,-0.1347,-0.1434,-0.1489,-0.1432,-0.1224,-0.1228,-0.1222,-0.1243,-0.1238,-0.1265,0,0]},{"header":{"parameterUnit":"m.s-1","parameterCategory":2,"la1":30.2992,"la2":30.254,"lo1":-89.0895,"lo2":-89.0443,"dy":0.0025,"dx":0.0025,"nx":19,"ny":19,"refTime":"2026-05-19T09:00:00:Z","depth":"2","parameterNumber":3,"parameterNumberName":"V-component_of_CURRENTS"},"data":[0,0,0,-0.022,-0.0221,-0.0243,-0.0243,-0.0163,-0.0162,0,0,0,0,0,0,0,0,0,0,0,-0.022,-0.0221,-0.022,-0.0221,-0.0243,-0.0243,-0.0163,-0.0162,0,0,0,0,0,0,0,0,0,0,0,-0.0219,-0.022,-0.0221,-0.0221,-0.0243,-0.0243,-0.0163,-0.0169,0,0,0,0,0,0,0,0,0,0,-0.0159,-0.0183,-0.022,-0.0222,-0.0222,-0.0243,-0.0243,-0.017,-0.0168,-0.0129,0,-0.0158,0,-0.0162,-0.0156,-0.0156,0,0,0,-0.0201,-0.0185,-0.0192,-0.0222,-0.0222,-0.0243,-0.0227,-0.017,-0.0168,-0.0126,-0.0157,-0.0154,-0.016,-0.0156,-0.0155,-0.0134,-0.0134,0,0,-0.0199,-0.0212,-0.0194,-0.0192,-0.0259,-0.0227,-0.0228,-0.0169,-0.0177,-0.0157,-0.0153,-0.0159,-0.0155,-0.0154,-0.0133,-0.0134,0,0,0,-0.021,-0.0211,-0.0222,-0.0195,-0.021,-0.0228,-0.0229,-0.0179,-0.0185,-0.0152,-0.0158,-0.0154,-0.0153,-0.0133,-0.0134,-0.0219,0,0,0,-0.0208,-0.0218,-0.0222,-0.0227,-0.0213,-0.021,-0.0241,-0.0189,-0.0183,-0.0159,-0.0154,-0.0153,-0.0132,-0.0133,-0.0216,-0.0232,0,0,0,-0.0213,-0.0218,-0.0232,-0.0228,-0.0247,-0.0212,-0.0213,-0.0188,-0.0186,-0.0156,-0.0152,-0.0132,-0.0133,-0.0213,-0.0227,-0.0183,0,0,0,-0.0207,-0.0251,-0.0233,-0.0272,-0.0247,-0.0255,-0.0214,-0.0218,-0.0201,-0.0154,-0.0133,-0.0134,-0.0212,-0.0224,-0.0182,-0.0183,-0.019,0,0,-0.0256,-0.0257,-0.0276,-0.026,-0.0282,-0.0248,-0.0263,-0.0233,-0.0198,-0.0139,-0.0139,-0.0217,-0.0227,-0.0183,-0.0242,-0.0247,0,0,0,-0.0285,-0.0305,-0.0305,-0.0317,-0.0306,-0.0306,-0.0276,-0.0255,-0.0241,-0.0197,-0.0214,-0.0216,-0.0186,-0.0184,-0.0188,-0.0138,-0.0138,-0.0138,-0.0138,-0.037,-0.0352,-0.0376,-0.0362,-0.0367,-0.0345,-0.0336,-0.0304,-0.027,-0.0288,-0.0285,-0.0308,-0.0311,-0.0313,-0.0294,-0.0294,-0.0295,-0.0295,-0.0295,-0.043,-0.0447,-0.0424,-0.045,-0.0438,-0.0455,-0.0404,-0.0392,-0.0347,-0.0342,-0.0308,-0.0274,-0.0323,-0.0302,-0.0301,-0.03,-0.0299,-0.0298,-0.0298,-0.0484,-0.049,-0.0503,-0.0521,-0.055,-0.0535,-0.0518,-0.0485,-0.0417,-0.0407,-0.0343,-0.0341,-0.0319,-0.0386,-0.0385,-0.0385,-0.0385,-0.0385,-0.0385,-0.0542,-0.0544,-0.0573,-0.059,-0.0615,-0.0628,-0.0583,-0.0528,-0.045,-0.0411,-0.041,-0.0336,-0.0333,-0.0321,-0.0384,-0.0384,-0.0384,-0.0384,-0.0385,-0.0614,-0.0609,-0.0637,-0.0659,-0.0673,-0.0683,-0.0625,-0.0531,-0.0455,-0.0409,-0.0381,-0.0382,-0.0331,-0.0327,-0.0314,-0.037,-0.037,-0.037,-0.037,-0.0661,-0.0657,-0.0687,-0.0701,-0.0698,-0.07,-0.0662,-0.0474,-0.0321,-0.0146,-0.0155,-0.0151,-0.0159,-0.0096,-0.0097,-0.0077,-0.0072,-0.007,-0.0069,-0.0698,-0.0695,-0.0725,-0.0718,-0.0714,-0.0709,-0.0712,-0.042,0.0062,-0.0047,0.0012,-0.0372,-0.0395,-0.0396,-0.0319,-0.0313,-0.0289,0,0]}],[{"header":{"parameterUnit":"m.s-1","parameterCategory":2,"la1":30.2992,"la2":30.254,"lo1":-89.0895,"lo2":-89.0443,"dy":0.0025,"dx":0.0025,"nx":19,"ny":19,"refTime":"2026-05-19T09:00:00:Z","depth":"4","parameterNumber":2,"parameterNumberName":"U-component_of_CURRENTS"},"data":[0,0,0,-0.063,-0.0632,-0.0775,-0.0776,-0.0952,-0.0954,0,0,0,0,0,0,0,0,0,0,0,-0.0589,-0.0589,-0.0629,-0.0632,-0.0775,-0.0776,-0.0952,-0.0954,0,0,0,0,0,0,0,0,0,0,0,-0.0589,-0.0589,-0.059,-0.0632,-0.0775,-0.0776,-0.0952,-0.0853,0,0,0,0,0,0,0,0,0,0,-0.0717,-0.0674,-0.0589,-0.059,-0.0633,-0.0774,-0.0776,-0.0848,-0.0859,-0.0876,0,-0.0888,0,-0.0908,-0.0963,-0.0963,0,0,0,-0.0662,-0.0665,-0.0693,-0.059,-0.0634,-0.0774,-0.0719,-0.0854,-0.0866,-0.089,-0.089,-0.0897,-0.0911,-0.0963,-0.0964,-0.1144,-0.1145,0,0,-0.0654,-0.0631,-0.0684,-0.0699,-0.0657,-0.0714,-0.0723,-0.0862,-0.0875,-0.0891,-0.0901,-0.0914,-0.0964,-0.0965,-0.1143,-0.1145,0,0,0,-0.0611,-0.0625,-0.0651,-0.0692,-0.0709,-0.0717,-0.0728,-0.0869,-0.0874,-0.0903,-0.0916,-0.0965,-0.0967,-0.1142,-0.1144,-0.1253,0,0,0,-0.0608,-0.0598,-0.0647,-0.0637,-0.0706,-0.0792,-0.0731,-0.0865,-0.0881,-0.0915,-0.0965,-0.0968,-0.1141,-0.1143,-0.1248,-0.1257,0,0,0,-0.0585,-0.0596,-0.0606,-0.0635,-0.0682,-0.079,-0.0805,-0.087,-0.0887,-0.0963,-0.0968,-0.114,-0.1143,-0.1243,-0.125,-0.1102,0,0,0,-0.0568,-0.0587,-0.0605,-0.0644,-0.068,-0.0787,-0.0805,-0.092,-0.0993,-0.0966,-0.1141,-0.1144,-0.1242,-0.1246,-0.1101,-0.0914,0,0,0,-0.0581,-0.0588,-0.0613,-0.0633,-0.0721,-0.077,-0.0908,-0.1018,-0.103,-0.1097,-0.1102,-0.125,-0.125,-0.1102,-0.1054,0,0,0,0,-0.0611,-0.0651,-0.0679,-0.0736,-0.0792,-0.0893,-0.1002,-0.1057,-0.1182,-0.1076,-0.1266,-0.1262,-0.1164,-0.1056,-0.1155,-0.1155,-0.1154,-0.1154,-0.1154,-0.0625,-0.0669,-0.0725,-0.0804,-0.0875,-0.1017,-0.1101,-0.1195,-0.1243,-0.132,-0.1366,-0.1348,-0.1251,-0.14,-0.1401,-0.1402,-0.1402,-0.1402,-0.1403,-0.0683,-0.0698,-0.0778,-0.0883,-0.096,-0.1119,-0.124,-0.132,-0.1392,-0.146,-0.1358,-0.1205,-0.1414,-0.1412,-0.141,-0.1409,-0.1408,-0.1407,-0.1406,-0.0688,-0.0683,-0.0788,-0.0892,-0.1058,-0.1222,-0.1245,-0.1407,-0.1449,-0.1445,-0.1205,-0.1346,-0.1307,-0.1382,-0.1381,-0.1381,-0.138,-0.138,-0.138,-0.061,-0.0682,-0.0744,-0.0919,-0.0992,-0.1128,-0.1275,-0.1232,-0.131,-0.1262,-0.145,-0.1337,-0.1337,-0.1302,-0.1371,-0.1373,-0.1374,-0.1375,-0.1375,-0.057,-0.0591,-0.0647,-0.0707,-0.0816,-0.089,-0.1018,-0.0994,-0.0879,-0.0841,-0.1082,-0.1099,-0.0988,-0.0995,-0.0943,-0.0908,-0.0906,-0.0904,0,-0.0476,-0.0513,-0.0498,-0.0493,-0.0485,-0.0686,-0.0542,-0.0569,-0.0703,-0.072,-0.0822,-0.1093,-0.1107,-0.0981,-0.0983,-0.092,0,0,0,-0.0402,-0.041,-0.0349,-0.0364,-0.0358,-0.0392,-0.0503,-0.0504,-0.0729,-0.0646,-0.0845,-0.086,-0.1076,-0.1347,-0.1212,-0.1213,-0.1145,0,0]},{"header":{"parameterUnit":"m.s-1","parameterCategory":2,"la1":30.2992,"la2":30.254,"lo1":-89.0895,"lo2":-89.0443,"dy":0.0025,"dx":0.0025,"nx":19,"ny":19,"refTime":"2026-05-19T09:00:00:Z","depth":"4","parameterNumber":3,"parameterNumberName":"V-component_of_CURRENTS"},"data":[0,0,0,-0.0049,-0.0051,-0.0089,-0.0089,-0.0056,-0.0056,0,0,0,0,0,0,0,0,0,0,0,-0.003,-0.003,-0.0049,-0.0051,-0.0089,-0.0089,-0.0056,-0.0056,0,0,0,0,0,0,0,0,0,0,0,-0.0029,-0.003,-0.0031,-0.0051,-0.0089,-0.0089,-0.0057,-0.0044,0,0,0,0,0,0,0,0,0,0,-0.0016,-0.001,-0.003,-0.0031,-0.0051,-0.009,-0.0089,-0.0044,-0.0045,-0.002,0,-0.0035,0,-0.0052,-0.0053,-0.0053,0,0,0,-0.0036,-0.001,-0.0029,-0.0031,-0.0052,-0.009,-0.0068,-0.0045,-0.0046,-0.002,-0.0035,-0.0035,-0.0052,-0.0053,-0.0053,-0.0044,-0.0044,0,0,-0.0034,-0.0024,-0.0029,-0.0029,-0.0072,-0.0067,-0.0069,-0.0046,-0.0044,-0.0035,-0.0034,-0.0051,-0.0053,-0.0052,-0.0043,-0.0044,0,0,0,-0.0038,-0.0022,-0.0043,-0.003,-0.0048,-0.0068,-0.0071,-0.0045,-0.0055,-0.0034,-0.0051,-0.0052,-0.0052,-0.0043,-0.0044,-0.0047,0,0,0,-0.0036,-0.0026,-0.0042,-0.0035,-0.0049,-0.0058,-0.007,-0.0056,-0.0055,-0.0051,-0.0052,-0.0052,-0.0043,-0.0043,-0.0046,-0.0052,0,0,0,-0.0026,-0.0025,-0.0035,-0.0034,-0.006,-0.0059,-0.0067,-0.0056,-0.0065,-0.0053,-0.0051,-0.0043,-0.0043,-0.0046,-0.0052,-0.005,0,0,0,-0.0006,-0.0041,-0.0034,-0.0086,-0.006,-0.012,-0.0068,-0.0086,-0.0082,-0.0052,-0.0043,-0.0044,-0.0045,-0.0051,-0.0049,0.0004,0,0,0,-0.0044,-0.0045,-0.0081,-0.0077,-0.0152,-0.0113,-0.0171,-0.0129,-0.0076,-0.0041,-0.0042,-0.0046,-0.0051,-0.005,-0.0026,0,0,0,0,-0.0091,-0.0113,-0.0135,-0.0178,-0.0208,-0.0226,-0.0197,-0.0165,-0.0098,-0.0079,-0.0056,-0.0059,-0.0058,-0.0026,-0.0046,-0.0046,-0.0046,-0.0046,-0.0046,-0.0103,-0.0148,-0.0214,-0.0264,-0.0294,-0.0298,-0.0287,-0.0233,-0.0158,-0.0118,-0.0068,-0.0079,-0.0047,-0.0073,-0.0073,-0.0073,-0.0073,-0.0073,-0.0073,-0.0168,-0.0206,-0.0268,-0.033,-0.0357,-0.0377,-0.0346,-0.0277,-0.0169,-0.0108,-0.0106,-0.004,-0.0074,-0.0074,-0.0074,-0.0074,-0.0074,-0.0073,-0.0073,-0.0146,-0.0178,-0.0216,-0.0323,-0.0375,-0.0389,-0.0383,-0.0295,-0.0174,-0.0137,-0.0055,-0.0083,-0.0075,-0.009,-0.009,-0.009,-0.009,-0.009,-0.009,-0.0093,-0.0153,-0.0202,-0.0313,-0.0374,-0.0392,-0.0359,-0.0289,-0.0173,-0.0059,-0.0096,-0.0085,-0.0084,-0.0076,-0.009,-0.009,-0.009,-0.009,-0.009,-0.0083,-0.0075,-0.0168,-0.0236,-0.0404,-0.0433,-0.0415,-0.0245,-0.0163,-0.0048,-0.0036,-0.0039,-0.0032,-0.0033,-0.0022,-0.0021,-0.002,-0.0019,0,-0.0046,-0.0063,-0.0152,-0.0282,-0.0401,-0.047,-0.0342,-0.0246,-0.011,-0.0099,-0.0171,-0.0167,-0.0164,-0.0169,-0.0168,-0.0163,0,0,0,-0.0057,-0.0068,-0.0122,-0.0253,-0.0422,-0.0356,-0.0299,-0.0222,-0.0139,-0.0012,-0.0003,-0.0007,-0.0099,-0.0092,-0.0087,-0.0087,-0.0073,0,0]}]]